[[{"header":{"parameterUnit":"m.s-1","parameterCategory":1,"la1":30.2991,"la2":30.254,"lo1":-89.0895,"lo2":-89.0444,"dy":0.0017,"dx":0.0017,"nx":28,"ny":28,"refTime":"2025-07-27T21:00:00:Z","depth":0,"parameterNumber":2,"parameterNumberName":"U-component_of_WINDS"},"data":[0,0,0,0,0,0,0,0,0,0,0,0,0,0,0,0,0,0,0,0,0,0,0,0,0,0,0,0,0,0,0,0,0,0,0,0,0,0,0,0,0,0,0,0,0,0,0,0,0,0,0,0,0,0,0,0,0,0,2.4684,2.4684,0,2.476,2.476,2.4761,2.4734,2.4733,2.4731,2.4729,2.4812,2.4816,2.482,0,0,0,0,0,0,0,0,0,0,0,0,0,2.4522,2.4525,2.4684,2.4685,2.4686,2.4759,2.476,2.4762,2.4735,2.4733,2.4731,2.4729,2.4811,2.4816,2.482,0,0,0,0,0,0,0,0,0,0,0,0,0,2.4595,2.4526,2.4683,2.4681,2.4681,2.4759,2.4761,2.4762,2.4735,2.4733,2.473,2.4728,2.481,2.4815,2.4821,2.4907,0,0,2.4838,2.4841,0,0,0,0,0,0,0,0,2.4591,2.4601,2.468,2.4681,2.4682,2.4735,2.4734,2.4811,2.4736,2.4715,2.4729,2.4726,2.4789,2.4796,2.4816,2.4911,2.4915,2.4839,2.4842,2.4845,2.4846,0,0,0,0,0,0,0,2.4586,2.4597,2.4714,2.4682,2.4683,2.4678,2.4686,2.4748,2.4766,2.4717,2.4715,2.4724,2.4789,2.4811,2.4818,2.4916,2.4839,2.4844,2.4847,2.4849,2.5089,2.5092,0,0,0,0,0,0,2.458,2.4593,2.4711,2.4716,2.4629,2.4683,2.4692,2.4721,2.4765,2.4769,2.4726,2.4722,2.4802,2.4811,2.4821,2.4927,2.4845,2.485,2.4853,2.5086,2.509,2.5093,0,0,0,0,0,0,2.4576,2.459,2.4708,2.4654,2.4669,2.4689,2.4721,2.4723,2.4745,2.4772,2.4775,2.4745,2.4801,2.4813,2.4886,2.493,2.4853,2.4858,2.5083,2.5087,2.5091,2.5139,0,0,0,0,0,0,2.4572,2.4589,2.462,2.4655,2.4672,2.4771,2.4724,2.4727,2.4754,2.475,2.479,2.4795,2.48,2.4878,2.4892,2.4936,2.4862,2.5079,2.5085,2.509,2.5134,2.5144,2.5154,0,0,0,0,0,2.4566,2.4631,2.4622,2.4636,2.4711,2.4773,2.4783,2.4786,2.4758,2.4791,2.4809,2.4793,2.4922,2.4886,2.4901,2.4948,2.5076,2.5083,2.509,2.5129,2.5142,2.5153,0,0,0,0,0,0,2.4602,2.4635,2.4626,2.4704,2.4736,2.4768,2.4809,2.4799,2.4841,2.4836,2.4839,2.4849,2.4925,2.4943,2.4902,2.5035,2.4996,2.5006,2.502,2.5033,2.5043,2.5037,2.4867,0,0,0,0,0,2.4619,2.4664,2.4692,2.4758,2.4775,2.479,2.4817,2.4816,2.485,2.4864,2.4887,2.4922,2.4971,2.5003,2.5049,2.5136,2.5146,2.5176,2.5186,2.5194,2.5203,2.5254,2.5268,2.5115,2.5115,2.5115,0,0,2.4654,2.4678,2.4707,2.4766,2.4791,2.484,2.4801,2.4854,2.4892,2.4873,2.4943,2.4962,2.5002,2.5083,2.512,2.5101,2.5248,2.5203,2.5209,2.5214,2.5262,2.5277,2.529,2.5119,2.5119,2.5118,0,0,2.4745,2.4766,2.4825,2.4851,2.4888,2.4898,2.4913,2.4948,2.4959,2.503,2.5017,2.5063,2.5146,2.5176,2.5202,2.5306,2.5295,2.5321,2.5374,2.5424,2.5436,2.5446,2.5486,2.55,2.533,2.533,2.533,0,2.4784,2.4856,2.4857,2.4912,2.494,2.4924,2.4985,2.5011,2.5062,2.5083,2.506,2.5166,2.5191,2.5281,2.5307,2.5328,2.5346,2.5317,2.5433,2.5444,2.5454,2.5492,2.5507,2.5333,2.5333,2.5333,2.5332,0,2.4905,2.4956,2.4999,2.5048,2.5081,2.5139,2.5151,2.5184,2.5182,2.5195,2.527,2.53,2.5353,2.5374,2.5373,2.5465,2.5452,2.5432,2.5392,2.5472,2.5508,2.5522,2.5338,2.5337,2.5336,2.5335,0,0,2.5019,2.5069,2.5085,2.5109,2.515,2.5191,2.525,2.5301,2.5331,2.5367,2.5419,2.5491,2.5473,2.5502,2.5504,2.5547,2.5632,2.5522,2.5523,2.5543,2.5738,2.5754,2.5771,2.5624,2.5627,2.5629,2.5736,0,2.5114,2.5215,2.5219,2.5312,2.5361,2.5348,2.54,2.5432,2.5447,2.5492,2.5509,2.5561,2.5532,2.555,2.5592,2.5612,2.5671,2.5604,2.5674,2.5677,2.5666,2.5789,2.5806,2.5905,2.5749,2.5752,2.5753,0,2.5238,2.5278,2.5377,2.5414,2.5434,2.548,2.5529,2.5572,2.561,2.5618,2.5652,2.5648,2.5712,2.5669,2.5758,2.5713,2.5742,2.5757,2.5761,2.5768,2.5721,2.5802,2.5936,2.5952,2.5775,2.5773,2.5772,0,2.5314,2.5393,2.5463,2.5483,2.5527,2.5561,2.5581,2.5617,2.5648,2.5691,2.5712,2.5763,2.5791,2.5831,2.5843,2.581,2.5933,2.5891,2.5943,2.5943,2.597,2.5968,2.6113,2.5987,2.5986,2.5986,2.5986,0,2.542,2.5482,2.5497,2.554,2.561,2.5615,2.5684,2.5703,2.5735,2.5783,2.5775,2.5821,2.5833,2.5882,2.5892,2.5965,2.5978,2.5988,2.599,2.5989,2.5988,2.6009,2.6003,2.599,2.5989,2.5988,2.5988,0,2.5517,2.5529,2.5605,2.5641,2.5652,2.5702,2.5734,2.5777,2.5791,2.5853,2.5868,2.5891,2.5949,2.5964,2.6033,2.604,2.6128,2.6122,2.6114,2.6115,2.6167,2.6163,2.6331,2.6354,2.6212,2.6213,2.6214,0,2.5584,2.5631,2.5673,2.5704,2.5726,2.5776,2.5808,2.5816,2.5851,2.5899,2.5937,2.5993,2.6039,2.6133,2.6157,2.6211,2.6208,2.6264,2.6216,2.6215,2.6211,2.6209,2.6215,2.6273,2.6274,2.6275,2.6276,0,2.5703,2.5708,2.5754,2.5803,2.5841,2.588,2.5918,2.5945,2.5958,2.5998,2.6056,2.6092,2.6163,2.622,2.6275,2.6299,2.6291,2.6291,2.6307,2.6307,2.6301,2.6307,2.614,2.6287,2.6286,2.6285,2.6285,2.6284,2.5789,2.5831,2.5867,2.592,2.5949,2.5985,2.6027,2.6047,2.6096,2.6153,2.6156,2.622,2.626,2.6333,2.636,2.6412,2.6396,2.6417,2.6423,2.6429,2.6434,2.6292,2.6422,2.6422,2.6421,2.6421,2.6421,0,2.5909,2.5933,2.598,2.6033,2.6076,2.6063,2.6105,2.6142,2.6198,2.6235,2.6281,2.635,2.6406,2.6435,2.6492,2.6528,2.6527,2.6543,2.6541,2.6548,2.6445,2.6426,2.6544,2.6544,2.6544,2.6544,2.6544,2.6544,2.5977,2.6048,2.6058,2.6145,2.6168,2.623,2.6256,2.629,2.632,2.6397,2.6443,2.6462,2.6497,2.6557,2.6609,2.6616,2.6638,2.6657,2.6663,2.6567,2.6554,2.6542,2.6525,2.6662,2.6662,2.6762,2.6763,2.6764]},{"header":{"parameterUnit":"m.s-1","parameterCategory":1,"la1":30.2991,"la2":30.254,"lo1":-89.0895,"lo2":-89.0444,"dy":0.0017,"dx":0.0017,"nx":28,"ny":28,"refTime":"2025-07-27T21:00:00:Z","depth":0,"parameterNumber":3,"parameterNumberName":"V-component_of_WINDS"},"data":[0,0,0,0,0,0,0,0,0,0,0,0,0,0,0,0,0,0,0,0,0,0,0,0,0,0,0,0,0,0,0,0,0,0,0,0,0,0,0,0,0,0,0,0,0,0,0,0,0,0,0,0,0,0,0,0,0,0,1.537,1.5371,0,1.5502,1.5503,1.5505,1.5451,1.5448,1.5445,1.5442,1.5576,1.5583,1.5589,0,0,0,0,0,0,0,0,0,0,0,0,0,1.5068,1.5074,1.537,1.5371,1.5373,1.5502,1.5503,1.5505,1.5452,1.5448,1.5444,1.544,1.5574,1.5582,1.559,0,0,0,0,0,0,0,0,0,0,0,0,0,1.52,1.5076,1.5369,1.5362,1.5362,1.5501,1.5503,1.5506,1.5452,1.5448,1.5443,1.5439,1.5572,1.5581,1.5591,1.5745,0,0,1.5621,1.5625,0,0,0,0,0,0,0,0,1.5192,1.5211,1.5361,1.5362,1.5363,1.5455,1.5446,1.5586,1.5454,1.5418,1.5442,1.5436,1.554,1.5552,1.5587,1.5751,1.5757,1.5621,1.5627,1.5632,1.5634,0,0,0,0,0,0,0,1.5183,1.5205,1.5422,1.5363,1.5365,1.5351,1.5364,1.5473,1.5504,1.5421,1.5417,1.5434,1.5539,1.5578,1.559,1.5759,1.5621,1.563,1.5636,1.564,1.6052,1.6056,0,0,0,0,0,0,1.5174,1.5197,1.5418,1.5426,1.5265,1.536,1.5375,1.543,1.5502,1.5509,1.5438,1.5431,1.5563,1.5578,1.5594,1.5776,1.5631,1.5641,1.5646,1.6047,1.6053,1.6058,0,0,0,0,0,0,1.5168,1.5194,1.5412,1.5311,1.5337,1.537,1.5433,1.5436,1.5474,1.5515,1.552,1.5471,1.556,1.5581,1.5707,1.578,1.5645,1.5654,1.604,1.6048,1.6055,1.6144,0,0,0,0,0,0,1.5159,1.5192,1.5252,1.5312,1.5343,1.5524,1.5437,1.5442,1.5491,1.5483,1.5548,1.5554,1.5558,1.5693,1.5717,1.5791,1.5661,1.6034,1.6044,1.6053,1.6134,1.6153,1.617,0,0,0,0,0,1.5149,1.5272,1.5255,1.5282,1.5419,1.5528,1.5546,1.5548,1.5497,1.5556,1.5582,1.5552,1.5769,1.5706,1.5733,1.5811,1.6029,1.6041,1.6052,1.6126,1.615,1.6169,0,0,0,0,0,0,1.522,1.528,1.5262,1.5409,1.5464,1.5519,1.5595,1.5574,1.5644,1.5634,1.5634,1.5649,1.5779,1.5808,1.5737,1.5962,1.5891,1.5908,1.5938,1.5961,1.5978,1.5968,1.567,0,0,0,0,0,1.5253,1.5338,1.5385,1.551,1.5539,1.5562,1.561,1.5607,1.5664,1.5687,1.5722,1.5778,1.5858,1.5911,1.5988,1.6138,1.615,1.6205,1.6223,1.6237,1.6252,1.633,1.6355,1.6096,1.6096,1.6096,0,0,1.5322,1.5365,1.5419,1.5526,1.5568,1.5654,1.5582,1.5678,1.5741,1.5701,1.5822,1.585,1.5912,1.605,1.6113,1.6078,1.6326,1.6252,1.6263,1.627,1.6345,1.6369,1.6391,1.6104,1.6102,1.6101,0,0,1.549,1.5533,1.564,1.5683,1.5748,1.5762,1.5788,1.5846,1.5863,1.5984,1.5955,1.603,1.6169,1.6214,1.6254,1.6437,1.641,1.6462,1.6554,1.663,1.6651,1.6669,1.6731,1.6754,1.6477,1.6477,1.6477,0,1.5568,1.5698,1.5698,1.5795,1.5841,1.5809,1.5916,1.5958,1.6045,1.6077,1.6037,1.6209,1.6249,1.6395,1.6439,1.6475,1.6502,1.6454,1.6648,1.6666,1.6683,1.6742,1.6766,1.6482,1.6482,1.6481,1.6481,0,1.5788,1.5878,1.5957,1.604,1.6095,1.6198,1.6212,1.6268,1.6259,1.6277,1.6399,1.6445,1.6529,1.6564,1.6557,1.6709,1.6685,1.6647,1.6575,1.6713,1.6769,1.6792,1.6491,1.6489,1.6487,1.6485,0,0,1.6006,1.6086,1.6115,1.6151,1.6218,1.6288,1.6387,1.6468,1.6515,1.6575,1.6657,1.6774,1.6738,1.6784,1.6782,1.685,1.6987,1.6803,1.6804,1.6833,1.7154,1.718,1.7207,1.697,1.6975,1.6978,1.7147,0,1.6178,1.6352,1.6354,1.6514,1.6595,1.6564,1.665,1.67,1.6719,1.679,1.681,1.6892,1.684,1.6868,1.6933,1.6957,1.7051,1.6945,1.7044,1.7048,1.7028,1.7237,1.7266,1.7423,1.7169,1.7173,1.7176,0,1.6403,1.6469,1.6636,1.6689,1.6723,1.6801,1.6874,1.6943,1.6998,1.7006,1.7057,1.7043,1.7142,1.7068,1.7203,1.713,1.7171,1.7188,1.7194,1.7203,1.7119,1.7248,1.7474,1.7497,1.7211,1.7208,1.7206,0,1.6542,1.6673,1.6789,1.6821,1.6887,1.6941,1.697,1.7021,1.7069,1.7132,1.7163,1.7237,1.7278,1.7335,1.7341,1.7287,1.7476,1.7403,1.7484,1.7483,1.7524,1.7521,1.7757,1.7554,1.7553,1.7553,1.7552,0,1.6733,1.6836,1.6852,1.6923,1.7037,1.7037,1.715,1.7174,1.7219,1.7293,1.7271,1.7341,1.7346,1.7417,1.7423,1.7532,1.7551,1.7559,1.7559,1.756,1.7559,1.7585,1.7574,1.7559,1.7558,1.7556,1.7555,0,1.6907,1.6923,1.7047,1.7098,1.7113,1.7194,1.7237,1.7304,1.732,1.7414,1.7436,1.746,1.7543,1.7555,1.7652,1.7655,1.7785,1.7775,1.7767,1.7764,1.7843,1.7835,1.8104,1.8138,1.7914,1.7916,1.7918,0,1.7027,1.7106,1.7164,1.7212,1.7244,1.7323,1.7371,1.7374,1.7424,1.7491,1.7549,1.763,1.7694,1.7827,1.7852,1.7925,1.7915,1.8004,1.7926,1.7923,1.7913,1.7908,1.7914,1.8019,1.8021,1.8023,1.8025,0,1.7238,1.7241,1.7311,1.7384,1.7442,1.7499,1.7553,1.7594,1.7603,1.7661,1.7745,1.7794,1.7892,1.7971,1.8043,1.8071,1.8049,1.8049,1.8071,1.8072,1.8063,1.8067,1.7805,1.8043,1.8041,1.804,1.8039,1.8038,1.7387,1.7454,1.7505,1.7583,1.7624,1.7674,1.7739,1.7762,1.7832,1.7912,1.7909,1.8,1.805,1.8144,1.8178,1.8248,1.8219,1.8251,1.8259,1.8267,1.8273,1.8054,1.8261,1.8261,1.826,1.826,1.8259,0,1.7594,1.7625,1.7697,1.7772,1.7833,1.7807,1.7865,1.7917,1.7998,1.8047,1.8109,1.8204,1.828,1.8311,1.8384,1.8434,1.8426,1.8453,1.8449,1.8455,1.8297,1.8269,1.8459,1.8459,1.8459,1.8459,1.8459,1.8459,1.7709,1.7819,1.7828,1.7958,1.7987,1.8077,1.8111,1.8157,1.8195,1.8302,1.8364,1.8384,1.8424,1.85,1.8568,1.8574,1.8601,1.8633,1.8635,1.8487,1.8466,1.8447,1.8421,1.864,1.864,1.8787,1.8789,1.879]}]]